Weather in Rybiantseve

Ukraine / Luhansk Region     49°28′38″N   39°01′27″E
temp.,
°C
wind,
m/s
gust,
m/s
humid.,
%
clouds,
%
prec.,
mm/h
press.,
hPa
HPBL,
m
19 april, mon
mon1900:00+11ese2254100 0.0 101733
03:00+10se356087 0.0 1016104
06:00+9ne237099 0.0 101672
09:00+13ene2358100 0.1 1015791
12:00+14ese235089 0.9 10141419
15:00+16s1145100 0.9 10131748
18:00+15ene125198 0.1 1013375
21:00+11ese347392 0.6 101482
20 april, tue
tue2000:00+10e3579100 0.1 101399
03:00+10e247889 0.1 101278
06:00+10e41087100 0.3 1011374
09:00+12ese71072100 0.3 1009794
12:00+11e61190100 3.6 1006781
15:00+11e81594100 11.3 9991102
18:00+9wnw498774 3.3 999402
21:00+9se259399 5.2 1001292
21 april, wed
wed2100:00+8wnw6109097 1.1 1003543
03:00+7sw41289100 1.1 1007453
06:00+9sw71290100 0.6 1009646
09:00+10sw71179100 0.9 1012685
12:00+14wsw79563 0.0 10131567
15:00+14wsw8105134 0.0 10141882
18:00+13wsw485898 0.0 1015750
21:00+10wnw116864 0.0 101811
22 april, thu
thu2200:00+10se1167100 0.0 101810
03:00+9se117175 0.0 101910
06:00+8ssw228289 0.1 102035
09:00+13ssw3365100 0.1 1021455
12:00+16ssw554895 0.4 10211369
15:00+17s354456 0.9 10202067
18:00+14ssw676263 0.4 1020438
21:00+10s117282 0.8 102110
23 april, fri
fri2300:00+9sse227899 0.1 102124
03:00+8ssw22905 0.1 102121
06:00+8ssw22895 0.0 102134
09:00+14ssw34685 0.0 1021536
12:00+17sw454830 1.1 10201812
15:00+16wsw4652100 1.2 10191475
18:00+15wsw2458100 0.1 1019153
21:00+13s3562100 0.1 101897